Simultaneous Nadir Overpasses (SNOs) Predictions

Prediction of SNOs between LANDSAT-8 and NOAA-19 Satellite Orbit:

Table of predicted SNOs for the next 14.0 days since TLE Epoch: 12/17/2022
Index Date (LANDSAT-8) Time (LANDSAT-8) Lat,Lon (LANDSAT-8) SZA (LANDSAT-8 ) Date (NOAA-19) Time (NOAA-19) Lat,Lon (NOAA-19) SZA (NOAA-19 ) Distance(km) Time Diff (sec)
1 12/19/2022 04:45:08 -80.91, -34.44 73.94 12/19/2022 04:44:18 -80.91, -34.62 73.98 3.17 50
2 12/19/2022 05:34:35 80.89, 132.92 106.02 12/19/2022 05:35:12 80.90, 133.06 106.06 3.17 37
3 12/21/2022 11:08:17 -80.89,-130.41 73.97 12/21/2022 11:08:03 -80.91,-130.41 73.96 1.36 14
4 12/21/2022 11:57:42 80.92, 37.62 106.10 12/21/2022 11:58:55 80.89, 37.91 106.13 6.03 73
5 12/23/2022 16:42:02 80.79, -35.11 105.80 12/23/2022 16:40:49 80.92, -35.74 105.83 17.96 73
6 12/23/2022 17:31:25 -80.90, 133.88 73.99 12/23/2022 17:31:48 -80.91, 133.74 73.99 2.47 23
7 12/25/2022 23:05:06 80.90,-129.55 105.93 12/25/2022 23:04:28 80.91,-129.47 105.94 1.80 38
8 12/25/2022 23:54:33 -80.90, 38.08 74.07 12/25/2022 23:55:32 -80.90, 38.21 74.04 2.21 59
9 12/28/2022 05:28:13 80.92, 134.89 105.85 12/28/2022 05:28:12 80.90, 134.89 105.84 1.28 1
10 12/30/2022 11:01:55 -80.90,-128.70 74.33 12/30/2022 11:01:03 -80.91,-128.51 74.33 3.25 52



Historial Predications of SNOs between LANDSAT-8 and NOAA-19
